Hourly Data Report for September 23, 2017

All times are specified in Local Standard Time (LST). Add 1 hour to adjust for Daylight Saving Time where and when it is observed.

PORT ALBERNI (AUT)
BRITISH COLUMBIA

49°18'59.700" N
124°55'36.600" W
76.20 m
1036B06
71475
WQC

Related Data

No related data is available for this station

Download Data

Hourly Data (September 2017)
Hourly Data Report for September 23, 2017
Temp Definition
°C
Dew Point Temp Definition
°C
Rel Hum Definition
%
Wind Dir Definition
10's deg

Wind Spd Definition
km/h
Visibility Definition
km
Stn Press Definition
kPa
Hmdx Definition


Wind Chill Definition


Weather Definition


TIME
00:00 12.6 9.5 81 14 5   100.76     LegendNANA
01:00 12.6 9.7 83 13 5   100.78     LegendNANA
02:00 11.8 9.9 88 34 3   100.78     LegendNANA
03:00 12.2 10.2 88 32 4   100.79     LegendNANA
04:00 11.2 10.0 92 31 2   100.79     LegendNANA
05:00 10.6 9.6 94 36 11   100.84     LegendNANA
06:00 8.9 8.1 94 15 2   100.87     LegendNANA
07:00 10.1 9.6 97 34 2   100.95     LegendNANA
08:00 13.6 10.9 84 4 2   100.98     LegendNANA
09:00 14.6 9.6 72 29 2   100.98     LegendNANA
10:00 16.7 8.5 59 9 4   100.95     LegendNANA
11:00 18.6 8.0 50 26 3   100.94     LegendNANA
12:00 19.8 6.7 42 10 4   100.95     LegendNANA
13:00 20.3 8.0 45 21 5   100.95     LegendNANA
14:00 20.3 7.5 44 29 2   100.95     LegendNANA
15:00 20.5 7.6 43 28 7   100.96     LegendNANA
16:00 20.8 7.9 43 18 6   100.94     LegendNANA
17:00 19.6 9.0 50 22 4   100.94     LegendNANA
18:00 16.6 10.2 66 12 7   100.98     LegendNANA
19:00 16.4 11.0 70 12 12   101.02     LegendNANA
20:00 16.0 11.0 72 13 9   101.04     LegendNANA
21:00 14.5 10.7 78 12 7   101.05     LegendNANA
22:00 13.3 10.9 85 28 3   101.08     LegendNANA
23:00 13.0 11.4 90 34 2   101.12     LegendNANA

Notes on Data Quality.

Legend

  • E = Estimated
  • M = Missing
  • NA = Not Available
  • ‡ = Partner data that is not subject to review by the National Climate Archives
Date modified: